This demonstration page uses our WeatherBlox Daily Observations layout. Learn more.

Left ArrowRight Arrow

38.20091, -84.87328

Hourly Observations for September 23, 2022

Temp ( °F °C ) Dew Point ( °F °C ) Humidity (%) Winds ( mph kmh ) Pressure ( in mb ) Visibility ( mi km ) Precip ( " mm )
12:53 am 00:53 Clear 56 13.3 45 7.2 66 66 VRB 3 6 30.14 1021 10 16 0.00 0.00
1:53 am 01:53 Clear 55 12.8 45 7.2 69 69 N 5 7 30.15 1021 10 16 0.00 0.00
2:53 am 02:53 Clear 53 11.7 44 6.7 71 71 Calm 30.14 1021 10 16 0.00 0.00
3:53 am 03:53 Clear 48 8.9 44 6.7 86 86 Calm 30.16 1021 10 16 0.00 0.00
4:53 am 04:53 Clear 50 10 45 7.2 83 83 N 3 6 30.16 1021 10 16 0.00 0.00
5:53 am 05:53 Clear 50 10 45 7.2 83 83 N 5 7 30.19 1022 10 16 0.00 0.00
6:53 am 06:53 Clear 49 9.4 44 6.7 83 83 Calm 30.20 1023 10 16 0.00 0.00
7:53 am 07:53 Sunny 47 8.3 44 6.7 90 90 Calm 30.23 1024 10 16 0.00 0.00
8:53 am 08:53 Sunny 52 11.1 45 7.2 77 77 N 5 7 30.24 1024 10 16 0.00 0.00
9:53 am 09:53 Sunny 57 13.9 44 6.7 62 62 NE 7 11 30.24 1024 10 16 0.00 0.00
10:53 am 10:53 Sunny 61 16.1 44 6.7 54 54 ENE 7 11 30.25 1025 10 16 0.00 0.00
11:53 am 11:53 Sunny 64 17.8 43 6.1 46 46 ENE 8 13 30.24 1024 10 16 0.00 0.00
12:53 pm 12:53 Sunny 66 18.9 43 6.1 43 43 undefined N/A 30.22 1024 10 16 0.00 0.00
1:53 pm 13:53 Sunny 68 20 41 5 37 37 Calm 30.21 1023 10 16 0.00 0.00
2:53 pm 14:53 Sunny 68 20 41 5 37 37 E 5 7 30.18 1022 10 16 0.00 0.00
3:53 pm 15:53 Sunny 69 20.6 41 5 36 36 VRB 6 9 30.17 1022 10 16 0.00 0.00
4:53 pm 16:53 Sunny 68 20 41 5 37 37 ENE 5 7 30.16 1021 10 16 0.00 0.00
5:53 pm 17:53 Sunny 68 20 42 5.6 39 39 NNE 3 6 30.15 1021 10 16 0.00 0.00
6:53 pm 18:53 Sunny 67 19.4 42 5.6 40 40 ENE 5 7 30.13 1020 10 16 0.00 0.00
7:53 pm 19:53 Clear 63 17.2 49 9.4 60 60 Calm 30.11 1020 10 16 0.00 0.00
8:53 pm 20:53 Partly Cloudy 63 17.2 46 7.8 54 54 ESE 6 9 30.10 1019 10 16 0.00 0.00
9:53 pm 21:53 Mostly Cloudy 64 17.8 45 7.2 50 50 NE 6 9 30.12 1020 10 16 0.00 0.00
10:53 pm 22:53 Mostly Cloudy 61 16.1 47 8.3 60 60 SE 3 6 30.12 1020 10 16 0.01 0.13
11:53 pm 23:53 Mostly Cloudy 61 16.1 47 8.3 60 60 Calm 30.09 1019 10 16 0.00 0.00

Powered by AerisWeather